SL-14 DEB, 43321

Orbit data source: Space-Track

SL-14 DEB, 43321 is space debris in LEO originally from a launch on Tue, 02 Dec 1986 UTC launched from the Plesetsk Missile And Space Complex (PKMTR). Debris objects in space refer to the collection of defunct objects orbiting the Earth. Examples of debris include non-operational satellites, rocket bodies, and fragments generated from explosions, collisions, or faulty payload assembly.

Loading next visibility...
Identifier
43321, 1986-094D
Orbit
LEO
Last TLE update
5 days ago
Origin
Manufacturer
Unknown
Mission
Spacecraft
Bus & Motor
Unknown
Mass
Unknown
Launch date (UTC)
1986-12-02 (39 years ago)
Launch vehicle
Unknown
Launch site
Plesetsk Missile And Space Complex (PKMTR)
Object type
Payload
Rocket body
Debris
Shape & HBR
Unknown
Radar Cross Section
Small (<0.1 m²)

Expand to show TLE details & history

TLE from 5 days ago
0 SL-14 DEB
1 43321U 86094D   25179.36075729  .00000043  00000-0  23791-3 0  9995
2 43321  82.6046 223.0997 0004815 111.8868 267.1693 12.42143373947086
Epoch: 2025-06-28T08:39Z
TLE epoch observation values (Epoch: 2025-06-28T08:39:29.429Z)
Latitude
18.83356°
Longitude
179.05165°
Altitude
1,499.944 km
Speed
7.116 km/s
True Right ascension
15h 02m 29s
True Declination
18° 44' 19"
Sunlit
Object was in daylight at epoch
Visualization orbit readout
Latitude
-8.47868°
Longitude
-5.54931°
Altitude
1,501.584 km
Speed
7.113 km/s
Apparent Right ascension
04h 50m 57s
Apparent Declination
-52° 57' 03"
Sunlit
Object is in daylight
Visualization observer readout
Local Sidereal Time
01:03:53
Azimuth
148.55° SSE
Elevation
-15.004°
Doppler factor
1
Orbital elements
Apogee altitude
1,498.669 km
Perigee altitude
1,491.088 km
Semi-major axis
7,873.016 km
Eccentricity
0.00048
Inclination
82.6046°
RAAN
223.0997°
Arg. of periapsis
111.8868°
True anomaly
Unknown
Mean anomaly
267.1693°
Eccentric anomaly
Unknown
Mean motion
3.10693 °/min
Orbital period
115.87 mins
BSTAR
0.00023791
Loading maneuver chart data...
Loading SW <> Apogee altitude chart data...
Loading historical data...
Loading historical data...
Loading historical data...
Loading historical data...
Loading historical data...
Loading historical data...
Loading historical data...
Other satellites on launch #94 in the year 1986 (1986-12-02 UTC)

SL-14 DEB Visibility forecast

Observer location: undefined°, undefined°

Span
Click to sort rows by Start time (UTC) header in descending order
Start Az.
Max El. time (UTC)
Max El. Az.
Max El.
End time (UTC)
End Az.
16 mins2025-07-03 14:49:05.285Z345.597° N2025-07-03 14:57:05.285Z281.369° WNW41.202°2025-07-03 15:05:05.285Z192.602° SSW
13 mins2025-07-04 01:55:05.285Z138.885° SSE2025-07-04 02:01:05.285Z86.939° E28.913°2025-07-04 02:08:05.285Z27.517° NE
15 mins2025-07-04 03:51:05.285Z213.376° SW2025-07-04 03:58:05.285Z290.463° WNW37.975°2025-07-04 04:06:05.285Z358.269° N
8 mins2025-07-04 12:07:05.285Z34.055° NE2025-07-04 12:11:05.285Z63.537° ENE14.624°2025-07-04 12:15:05.285Z91.877° ESE
|